BINAR-1 (49272 NORAD) Tracking and Keplerian Element Data

This shows tracking and keplerian element data for the satellite.

Feedback or suggestion? Click here.




ElementValue
Catalog49272
NameBINAR-1
Epoch Orbit5570
Epoch Day269.71716701
Epoch Year2022
RAAN154.8968
Inclination51.6183
Eccentricity0.000751
Argument of Perigee234.7261
Mean Anonmoly125.3052
Mean Motion16.13348887
Decay Rate0.01279649
L11 49272U 98067SR 22269.71716701 .01279649 11422-2 10664-2 0 9994
L22 49272 51.6183 154.8968 0007510 234.7261 125.3052 16.13348887 55703



Live tracking and technical data element details for BINAR-1 (NORAD 49272). BINAR-1 can be tracked NOW for your location showing map with azimuth and elevation plus other details from your city location.







IsCatalogInMostPopularTable: catalog: 49272, numindb: 117
Update: records affected: 1



GetName: 49272 BINAR-1

Hit Count: updated at: Fri, 24 Jan 2025 23:53:19 GMT